Regional Weather Roundup
Issued by NWS

Home | Current Version | Previous Version | Graphics & Text | Print | Product List | Glossary On
Versions: 1 2 3 4 5 6 7 8 9 10 11 12 13 14 15 16 17 18 19 20 21 22 23 24 25 26 27 28 29 30 31 32 33 34 35 36 37 38 39 40 41 42 43 44 45 46 47 48 49 50
000
ASUS43 KLOT 032021
RWRIL

ILLINOIS REGIONAL WEATHER ROUNDUP
NATIONAL WEATHER SERVICE CHICAGO/ROMEOVILLE IL
300 PM CDT THU SEP 03 2015

NOTE: "FAIR" INDICATES FEW OR NO CLOUDS BELOW 12,000 FEET WITH NO
SIGNIFICANT WEATHER AND/OR OBSTRUCTIONS TO VISIBILITY.

* THESE STATIONS ARE NOT UNDER NWS QUALITY CONTROL. THEY ALSO MAY NOT
  REPORT WEATHER SUCH AS PRECIPITATION OR FOG.

ILZ001-002-007-009-015-016-024-032100-
NORTHWEST ILLINOIS

CITY           SKY/WX    TMP DP  RH WIND       PRES   REMARKS
MOLINE         MOSUNNY   92  70  48 W9        29.90F HX  97
STERLING*      MOSUNNY   91  73  55 W10       29.88F HX 100
SAVANNA*       SUNNY     90  71  52 SW8       29.90F HX  96
$$

ILZ003-004-008-010-011-017-018-032100-
NORTH CENTRAL ILLINOIS

CITY           SKY/WX    TMP DP  RH WIND       PRES   REMARKS
ROCKFORD       MOSUNNY   88  72  58 SW8       29.92F HX  94
FREEPORT*      PTSUNNY   87  73  63 SW7       29.93F HX  95
ROCHELLE*      PTSUNNY   87  72  61 SW8       29.92F HX  93
DE KALB*       MOSUNNY   88  72  58 SW9       29.93F HX  94
PERU*          SUNNY     91  64  40 SW10      29.92F HX  92
$$

ILZ005-006-012>014-019>023-032100-
NORTHEAST ILLINOIS

CITY           SKY/WX    TMP DP  RH WIND       PRES   REMARKS
CHICAGO-OHARE  MOSUNNY   89  68  49 SW13G21   29.90F HX  93
CHICAGO-MIDWAY PTSUNNY   93  66  40 SW16G22   29.90F HX  96
AURORA         MOSUNNY   90  71  53 W10       29.92F HX  96
LANSING*       PTSUNNY   90  66  45 W10G20    29.91F HX  92
JOLIET*        MOSUNNY   92  68  45 W9G16     29.91F HX  96
WAUKEGAN       MOSUNNY   87  72  60 VRB5      29.89F HX  93
DUPAGE AIRPORT MOSUNNY   89  70  53 SW13      29.91F HX  94
KANKAKEE*      MOSUNNY   90  71  53 SW8       29.93F HX  97
WHEELING       MOSUNNY   91  69  48 W8        29.91F HX  96
MORRIS*        MOSUNNY   90  69  49 W13G18    29.91F HX  94
ROMEOVILLE*    MOSUNNY   89  67  49 W12       29.92F HX  91
NORTHERLY ISL    N/A     89  64  43 SW7         N/A  HX  90
$$

LMZ740>746-032100-
SOUTHERN LAKE MICHIGAN

STATION/POSITION SKY/WX   TEMP    WIND        PRES    VSBY  WAVE
                          AIR SEA DIR/SP/G                  HT/PER
                          (F)     (DEG/KT/KT) (MB)    (MI)  (FT/S)
SOUTHERN BUOY              75 73  250/  2/  2 1011.8F         1
WILMETTE HARBOR            78 62  290/  2/  4   N/A           0
HARRISON CRIB              87     240/ 16/ 20   N/A
BURNHAM HARBOR             88     260/  7/ 13   N/A
CALUMET HARBOR             89     220/  6/ 13   N/A
BURNS HARBOR               86     270/ 11/ 14 1013.5F
MICHIGAN CITY              81     210/  5/  5   N/A
MICHIGAN CITY 6N           83 76  260/  4/  4   N/A           1
ST. JOSEPH                 77 74  260/  6/  6   N/A           1/ 3
$$

ILZ025>027-034>036-040-047-049-050-058-095>099-032100-
WEST-CENTRAL ILLINOIS

CITY           SKY/WX    TMP DP  RH WIND       PRES   REMARKS
QUINCY         SUNNY     92  65  40 MISG      29.93F HX  94
GALESBURG*     SUNNY     91  68  46 SW8       29.93F HX  94
MACOMB*        MOSUNNY   92  66  42 SW6       29.95F HX  94
JACKSONVILLE*  MOSUNNY   94  67  40 SW9       29.93F HX  98
PITTSFIELD*    SUNNY     93  62  35 SW8       29.95F HX  94
$$

ILZ028>032-037-038-041>044-048-051>054-059>061-032100-
CENTRAL ILLINOIS

CITY           SKY/WX    TMP DP  RH WIND       PRES   REMARKS
PONTIAC        SUNNY     91  70  50 W13       29.94F HX  96
BLOOMINGTON    MOSUNNY   94  69  43 W8        29.95F HX  99
DECATUR        SUNNY     94  64  37 W12       29.94F HX  95
PEORIA         SUNNY     94  66  39 W10       29.92F HX  97
LACON*         MOSUNNY   90  67  47 SW7       29.91F HX  93
LINCOLN*       MOSUNNY   96  63  33 SW3       29.91F HX  97
SPRINGFIELD    MOSUNNY   93  69  45 S8        29.94F HX  98
TAYLORVILLE    PTSUNNY   90  68  48 SW5       29.95S HX  93
$$

ILZ033-039-045-046-055>057-062-063-032100-
EAST-CENTRAL ILLINOIS

CITY           SKY/WX    TMP DP  RH WIND       PRES   REMARKS
CHAMPAIGN      MOSUNNY   91  65  41 SW6       29.95F HX  93
MATTOON        MOSUNNY   92  63  38 SW10      29.95F HX  93
PARIS*         MOSUNNY   92  66  42 SW8       29.97S HX  94
$$

ILZ079-100>102-032100-
SOUTHWEST ILLINOIS

CITY           SKY/WX    TMP DP  RH WIND       PRES   REMARKS
ALTON          MOSUNNY   90  66  45 SW6       29.96F HX  92
BELLEVILLE     MOSUNNY   92  69  47 CALM      29.94F HX  97
CAHOKIA*       MOSUNNY   94  65  38 W6        29.94F HX  96
SPARTA*        MOSUNNY   90  69  50 CALM      29.97F HX  94
$$

ILZ064>066-069>071-074>076-080>082-084>086-088>090-092>094-032100-
SOUTH-CENTRAL ILLINOIS

CITY           SKY/WX    TMP DP  RH WIND       PRES   REMARKS
CARBONDALE     SUNNY     90  70  51 S9        29.97F HX  95
CAIRO*         SUNNY     90  73  57 CALM      29.96F HX  98
EFFINGHAM*     SUNNY     90  61  37 CALM      29.98S HX  90
MARION         MOSUNNY   91  68  46 SW8       29.98F HX  95
MT. VERNON     PTSUNNY   93  70  46 S9        29.97F HX  99
CENTRALIA*     SUNNY     91  69  48 CALM      29.96F HX  95
SALEM*         MOSUNNY   91  66  43 SW3       29.96F HX  93
METROPOLIS*    MOSUNNY   92  73  53 SE5       29.97F HX 101
$$

ILZ067-068-072-073-078-083-087-091-032100-
SOUTHEAST ILLINOIS

CITY           SKY/WX    TMP DP  RH WIND       PRES   REMARKS
LAWRENCEVILLE  MOSUNNY   92  65  40 SW8       29.96F HX  94
FLORA*         MOSUNNY   92  65  41 W8        29.96F HX  94
FAIRFIELD*     SUNNY     91  68  46 W3        29.95F HX  94
HARRISBURG*    MOSUNNY   92  69  45 W6        29.97F HX  97
ROBINSON*      SUNNY     92  66  43 S5        29.96F HX  94
CARMI*         SUNNY     91  70  50 CALM      29.96F HX  96
$$

ABBREVIATIONS USED IN REMARKS
   TC - TEMPERATURE IN CELSIUS
  WCI - WIND CHILL INDEX
   HX - HEAT INDEX
  VSB - VISIBILITY
$$



USA.gov is the U.S. government's official web portal to all federal, state and local government web resources and services.